Weather Roundup
Issued by NWS

Home | Current Version | Previous Version | Text Only | Print | Product List | Glossary On
Versions: 1 2 3 4 5 6 7 8 9 10 11 12 13 14 15 16 17 18 19 20 21 22 23 24 25 26 27 28 29 30 31 32 33 34 35 36 37 38 39 40 41 42 43 44 45 46 47 48 49 50
000
NZUS93 KARX 181559
HRRWXR

CURRENT HOURLY OBSERVATIONS ACROSS
MUCH OF THE UPPER MISSISSIPPI VALLEY
NATIONAL WEATHER SERVICE LA CROSSE WI
1100 AM CDT THU SEP 18 2014


...SOUTHEAST MINNESOTA...


CITY           SKY/WX    TMP DP  RH WIND       PRES   REMARKS
ROCHESTER      SUNNY     65  56  72 S8        30.13S
ROCHESTER/MAYO FAIR      63  53  68 SE6       30.12S
WINONA         CLOUDY    54  54 100 E8        30.15S
AUSTIN         SUNNY     66  55  68 S10       30.11S
ALBERT LEA     SUNNY     66  55  68 S10       30.10S
DODGE CENTER   SUNNY     66  57  72 S8        30.10F
PRESTON        SUNNY     63  59  88 SE6       30.14S
OWATONNA       SUNNY     68  55  64 SE7       30.09S
FARIBAULT      SUNNY     70  54  56 SE5       30.10R
$$

...ELSEWHERE IN MINNESOTA...


CITY           SKY/WX    TMP DP  RH WIND       PRES   REMARKS
MINNEAPOLIS    PTSUNNY   57  51  80 E9        30.10S
INTNL FALLS    CLOUDY    46  42  86 SE8       30.09F
DULUTH         PTSUNNY   47  39  74 E13       30.15S
RED WING       CLOUDY    57  54  88 SE9       30.11S
REDWOOD FALLS  SUNNY     64  56  75 SE9       30.05F
MANKATO        SUNNY     66  54  63 S7        30.08S
WORTHINGTON    CLOUDY    66  55  68 S15       30.07R
FAIRMONT       SUNNY     64  54  68 S13G18    30.08S
$$

...SOUTHWEST WISCONSIN...


CITY           SKY/WX    TMP DP  RH WIND       PRES   REMARKS
LA CROSSE      CLOUDY    57  51  80 E6        30.16S
PRAIRIE DU CHI SUNNY     57  51  79 NE5       30.15S
BOSCOBEL       CLOUDY    57  52  83 NE5       30.18S
LONE ROCK      NOT AVBL
PLATTEVILLE    SUNNY     58  53  83 E6        30.18R
FORT MC COY    NOT AVBL
VIROQUA        CLOUDY    52  52 100 SE6       30.17R VSB 1/2
WIS DELLS      CLOUDY    49  47  92 SE7       30.19S FOG
$$

...ELSEWHERE IN WISCONSIN...


CITY           SKY/WX    TMP DP  RH WIND       PRES   REMARKS
MILWAUKEE      CLOUDY    56  50  80 N10       30.18S
MADISON        CLOUDY    52  49  89 SE7       30.19S FOG
GREEN BAY      CLOUDY    50  42  74 VRB3      30.22S
EAU CLAIRE     NOT AVBL
BLACK RVR FLS  CLOUDY    51  51 100 SE7       30.17S FOG
MEDFORD        CLOUDY    44  43  97 SE5       30.18S FOG
WAUSAU         CLOUDY    44  40  85 E8        30.20R
WIS RAPIDS     CLOUDY    48  44  86 E6        30.22R
MARSHFIELD     CLOUDY    47  44  90 SE10      30.19S FOG
RICE LAKE      CLOUDY    50  47  89 SE8       30.16S
$$

...NORTHEAST IOWA...


CITY           SKY/WX    TMP DP  RH WIND       PRES   REMARKS
WATERLOO       SUNNY     66  54  65 SE9       30.11F
DUBUQUE        SUNNY     63  56  78 NE5       30.15S
DECORAH        SUNNY     63  54  72 SE7       30.13S
MASON CITY     SUNNY     67  55  65 S14       30.11F
CHARLES CITY   SUNNY     66  54  63 S10       30.13S
OELWEIN        SUNNY     66  54  63 SE9       30.14S
$$

...ELSEWHERE IN IOWA...


CITY           SKY/WX    TMP DP  RH WIND       PRES   REMARKS
DES MOINES     CLOUDY    60  58  92 VRB6      30.09F FOG
IOWA CITY      SUNNY     66  55  67 E7        30.13S
FORT DODGE     MOSUNNY   66  55  68 S12       30.09S
MARSHALLTOWN   SUNNY     64  54  69 S10       30.11R
CEDAR RAPIDS   SUNNY     65  55  70 SE6       30.12S
$$

...NORTHERN ILLINOIS...


CITY           SKY/WX    TMP DP  RH WIND       PRES   REMARKS
CHICAGO-OHARE  PTSUNNY   67  55  65 NE9       30.15S
DUPAGE         PTSUNNY   64  55  72 NE6       30.15F
CHICAGO-MIDWAY MOSUNNY   68  54  60 VRB3      30.15S
MOLINE         SUNNY     67  53  61 E8        30.12F
ROCKFORD       CLOUDY    57  52  83 E8        30.20S
STERLING       SUNNY     68  54  60 E9        30.14S
PEORIA         SUNNY     69  54  58 E9        30.12S
$$

NOTE: "FAIR" INDICATES FEW OR NO CLOUDS BELOW 12,000 FEET WITH NO
SIGNIFICANT WEATHER AND/OR OBSTRUCTIONS TO VISIBILITY. WIND
SPEEDS ARE IN MILES-PER-HOUR.



USA.gov is the U.S. government's official web portal to all federal, state and local government web resources and services.